User: anonymous   Login
Location: Unspecified
(0.0000°N, 0.0000°E)
Time: 09:06:46
(UTC+01:00)
Language:

SeaSat 1 - Orbit

View from above orbital plane
View from above orbital plane
View from above satellite
View from above satellite

Ground track
Ground track

The orbit data is extracted from the following two-line orbital elements,

1 10967U 78064A   16044.55137773  .00000180  00000-0  93392-4 0  9990
2 10967 107.9993 356.5718 0002326 300.6027  59.4887 14.43510304975949
Epoch (UTC): 13 February 2016 13:13:59
Eccentricity: 0.0002326
inclination: 107.9993°
perigee height: 745 km
apogee height: 748 km
right ascension of ascending node: 356.5718°
argument of perigee: 300.6027°
revolutions per day: 14.43510304
mean anomaly at epoch: 59.4887°
orbit number at epoch: 97594

The dashed part of the orbit path shows where the satellite is in the earth's shadow,  

DLR